Zurück zum Katalog

COSMOS 1947

GLONASS

AktivNavigationMEO
NORAD 19164·PAYLOAD·🇷🇺 Russia

Gestartet May 21, 1988 von Baikonur Cosmodrome

Loading…

Nächste Überflüge (nächste 24 Stunden)

TLE

AktuellSource: Space-Track

Epoche: Sep 13, 2026, 09:47 UTC

1 19164U 88043B   26256.40771751 -.00000008  00000-0  00000-0 0  9996
2 19164  65.0193  70.5197 0023884 223.9145 139.8317  2.13104110293185

Verfolge COSMOS 1947 in Echtzeit mit AllMySat

Download on the App Store